| time (UTC) | temp F | wind direction | speed MPH | gust MPH | rain 1hr in | rain 24hr in | rain mn in | humidity % | barometer mb |
| 20260509051359 | 53 | 192 | 0.0 | 3.0 | 0.00 | 0.00 | 0.00 | 92 | 1004.4 |
| 20260509050855 | 53 | 212 | 1.0 | 4.0 | 0.00 | 0.00 | 0.00 | 92 | 1004.6 |
| 20260509050352 | 53 | 203 | 2.0 | 3.0 | 0.00 | 0.00 | 0.00 | 91 | 1004.3 |
| 20260509045849 | 53 | 199 | 2.0 | 3.0 | 0.00 | 0.06 | 0.06 | 91 | 1004.5 |
| 20260509045346 | 53 | 197 | 3.0 | 4.0 | 0.00 | 0.06 | 0.06 | 91 | 1004.4 |
| 20260509044843 | 53 | 193 | 5.0 | 5.0 | 0.00 | 0.06 | 0.06 | 91 | 1004.4 |
| 20260509044341 | 54 | 183 | 3.0 | 5.0 | 0.00 | 0.06 | 0.06 | 91 | 1004.7 |
| 20260509043837 | 54 | 199 | 5.0 | 5.0 | 0.00 | 0.06 | 0.06 | 91 | 1004.6 |
| 20260509043333 | 54 | 196 | 3.0 | 5.0 | 0.00 | 0.06 | 0.06 | 91 | 1004.7 |
| 20260509042829 | 54 | 202 | 5.0 | 6.0 | 0.00 | 0.06 | 0.06 | 91 | 1004.6 |
| 20260509042326 | 54 | 214 | 2.0 | 6.0 | 0.00 | 0.06 | 0.06 | 91 | 1004.5 |
| 20260509041823 | 54 | 210 | 5.0 | 5.0 | 0.00 | 0.06 | 0.06 | 91 | 1004.6 |
| 20260509041320 | 54 | 196 | 3.0 | 5.0 | 0.00 | 0.06 | 0.06 | 91 | 1004.7 |
| 20260509040818 | 54 | 200 | 3.0 | 5.0 | 0.00 | 0.06 | 0.06 | 91 | 1004.8 |
| 20260509040315 | 54 | 197 | 4.0 | 4.0 | 0.00 | 0.06 | 0.06 | 90 | 1004.8 |
| 20260509035812 | 55 | 202 | 3.0 | 5.0 | 0.00 | 0.06 | 0.06 | 90 | 1004.8 |
| 20260509035309 | 55 | 192 | 4.0 | 5.0 | 0.00 | 0.06 | 0.06 | 90 | 1004.9 |
| 20260509034805 | 55 | 186 | 1.0 | 5.0 | 0.00 | 0.06 | 0.06 | 89 | 1005.1 |
| 20260509034303 | 55 | 198 | 3.0 | 5.0 | 0.00 | 0.06 | 0.06 | 88 | 1005.3 |
| 20260509033800 | 55 | 203 | 1.0 | 5.0 | 0.00 | 0.06 | 0.06 | 88 | 1005.2 |
| 20260509033257 | 55 | 201 | 3.0 | 6.0 | 0.00 | 0.06 | 0.06 | 88 | 1004.9 |
| 20260509032754 | 56 | 188 | 2.0 | 5.0 | 0.00 | 0.06 | 0.06 | 87 | 1004.9 |
| 20260509032251 | 55 | 196 | 2.0 | 5.0 | 0.00 | 0.06 | 0.06 | 87 | 1005.2 |
| 20260509031748 | 56 | 203 | 0.0 | 4.0 | 0.00 | 0.06 | 0.06 | 86 | 1005.0 |
| 20260509031245 | 56 | 192 | 4.0 | 5.0 | 0.00 | 0.06 | 0.06 | 86 | 1004.9 |
| 20260509030743 | 56 | 201 | 3.0 | 4.0 | 0.00 | 0.06 | 0.06 | 85 | 1004.9 |
| 20260509030241 | 56 | 201 | 2.0 | 5.0 | 0.00 | 0.06 | 0.06 | 85 | 1004.8 |
| 20260509025738 | 57 | 195 | 3.0 | 4.0 | 0.00 | 0.06 | 0.06 | 84 | 1004.8 |
| 20260509025233 | 57 | 201 | 3.0 | 4.0 | 0.00 | 0.06 | 0.06 | 83 | 1004.9 |
| 20260509024728 | 57 | 185 | 2.0 | 5.0 | 0.00 | 0.06 | 0.06 | 82 | 1004.8 |
| 20260509024224 | 57 | 180 | 2.0 | 5.0 | 0.00 | 0.06 | 0.06 | 81 | 1005.0 |
| 20260509023722 | 57 | 200 | 6.0 | 6.0 | 0.00 | 0.06 | 0.06 | 79 | 1005.0 |
| 20260509023219 | 57 | 197 | 3.0 | 6.0 | 0.00 | 0.06 | 0.06 | 79 | 1005.0 |
| 20260509022715 | 58 | 201 | 3.0 | 5.0 | 0.00 | 0.06 | 0.06 | 78 | 1004.8 |
| 20260509022213 | 58 | 194 | 2.0 | 4.0 | 0.00 | 0.06 | 0.06 | 77 | 1004.9 |
| 20260509021710 | 58 | 190 | 3.0 | 3.0 | 0.00 | 0.06 | 0.06 | 76 | 1005.0 |
| 20260509021207 | 58 | 192 | 2.0 | 4.0 | 0.00 | 0.06 | 0.06 | 76 | 1004.6 |
| 20260509020705 | 58 | 197 | 2.0 | 6.0 | 0.00 | 0.06 | 0.06 | 75 | 1004.8 |
| 20260509020202 | 58 | 203 | 1.0 | 5.0 | 0.00 | 0.06 | 0.06 | 75 | 1004.8 |
| 20260509015700 | 59 | 192 | 4.0 | 4.0 | 0.00 | 0.06 | 0.06 | 75 | 1004.8 |
| 20260509015158 | 59 | 198 | 3.0 | 6.0 | 0.00 | 0.06 | 0.06 | 75 | 1004.8 |
| 20260509014654 | 59 | 188 | 4.0 | 4.0 | 0.00 | 0.06 | 0.06 | 76 | 1004.5 |
| 20260509014150 | 59 | 228 | 2.0 | 4.0 | 0.00 | 0.06 | 0.06 | 76 | 1004.6 |
| 20260509013648 | 59 | 194 | 5.0 | 6.0 | 0.00 | 0.06 | 0.06 | 76 | 1004.5 |
| 20260509013143 | 59 | 197 | 3.0 | 4.0 | 0.00 | 0.06 | 0.06 | 76 | 1004.4 |
| 20260509012640 | 60 | 206 | 1.0 | 5.0 | 0.00 | 0.06 | 0.06 | 75 | 1004.4 |
| 20260509012137 | 60 | 259 | 2.0 | 7.0 | 0.00 | 0.06 | 0.06 | 75 | 1004.5 |
| 20260509011635 | 60 | 214 | 2.0 | 5.0 | 0.00 | 0.06 | 0.06 | 74 | 1004.5 |
| 20260509011132 | 60 | 193 | 3.0 | 5.0 | 0.00 | 0.06 | 0.06 | 74 | 1004.5 |
| 20260509010630 | 61 | 195 | 3.0 | 7.0 | 0.00 | 0.06 | 0.06 | 73 | 1004.3 |
| 20260509010126 | 61 | 196 | 7.0 | 7.0 | 0.00 | 0.06 | 0.06 | 73 | 1004.5 |
| 20260509005624 | 61 | 197 | 6.0 | 9.0 | 0.00 | 0.06 | 0.06 | 71 | 1004.6 |
| 20260509005120 | 62 | 196 | 3.0 | 12.0 | 0.00 | 0.06 | 0.06 | 71 | 1004.9 |
| 20260509004616 | 62 | 197 | 6.0 | 8.0 | 0.00 | 0.06 | 0.06 | 70 | 1004.3 |
| 20260509004113 | 62 | 199 | 7.0 | 7.0 | 0.00 | 0.06 | 0.06 | 68 | 1004.6 |
| 20260509003612 | 63 | 198 | 2.0 | 3.0 | 0.00 | 0.06 | 0.06 | 67 | 1004.6 |
| 20260509003108 | 63 | 352 | 0.0 | 4.0 | 0.00 | 0.06 | 0.06 | 65 | 1004.5 |
| 20260509002606 | 64 | 197 | 3.0 | 3.0 | 0.00 | 0.06 | 0.06 | 62 | 1004.4 |
| 20260509002103 | 64 | 191 | 4.0 | 7.0 | 0.00 | 0.06 | 0.06 | 60 | 1004.5 |
| 20260509001601 | 64 | 197 | 2.0 | 3.0 | 0.00 | 0.06 | 0.06 | 57 | 1004.4 |
| 20260509001056 | 64 | 184 | 2.0 | 3.0 | 0.00 | 0.06 | 0.06 | 54 | 1004.4 |
| 20260509000555 | 65 | 83 | 0.0 | 5.0 | 0.00 | 0.06 | 0.06 | 53 | 1004.4 |
| 20260509000050 | 66 | 75 | 1.0 | 3.0 | 0.00 | 0.06 | 0.06 | 55 | 1004.6 |
| 20260508235548 | 66 | 270 | 0.0 | 4.0 | 0.00 | 0.06 | 0.06 | 55 | 1004.5 |
| 20260508235044 | 67 | 209 | 2.0 | 5.0 | 0.00 | 0.06 | 0.06 | 54 | 1004.5 |
| 20260508234542 | 68 | 193 | 3.0 | 4.0 | 0.00 | 0.06 | 0.06 | 52 | 1004.5 |
| 20260508234038 | 68 | 214 | 0.0 | 12.0 | 0.00 | 0.06 | 0.06 | 52 | 1004.5 |
| 20260508233538 | 68 | 220 | 0.0 | 8.0 | 0.00 | 0.06 | 0.06 | 52 | 1004.7 |
| 20260508233035 | 68 | 195 | 0.0 | 5.0 | 0.00 | 0.06 | 0.06 | 54 | 1004.5 |
| 20260508232532 | 68 | 257 | 1.0 | 7.0 | 0.00 | 0.06 | 0.06 | 55 | 1004.4 |
| 20260508232029 | 67 | 255 | 1.0 | 5.0 | 0.00 | 0.06 | 0.06 | 56 | 1004.4 |
| 20260508231526 | 67 | 203 | 4.0 | 10.0 | 0.00 | 0.06 | 0.06 | 56 | 1004.4 |
| 20260508231023 | 68 | 237 | 3.0 | 5.0 | 0.00 | 0.06 | 0.06 | 55 | 1004.6 |
| 20260508230520 | 68 | 187 | 5.0 | 8.0 | 0.00 | 0.06 | 0.06 | 54 | 1004.5 |
| 20260508230017 | 67 | 195 | 4.0 | 5.0 | 0.00 | 0.06 | 0.06 | 55 | 1004.6 |
| 20260508225514 | 67 | 180 | 1.0 | 6.0 | 0.00 | 0.06 | 0.06 | 55 | 1004.6 |
| 20260508225010 | 68 | 198 | 3.0 | 7.0 | 0.00 | 0.06 | 0.06 | 54 | 1004.6 |
| 20260508224509 | 68 | 192 | 7.0 | 7.0 | 0.00 | 0.06 | 0.06 | 53 | 1004.8 |
| 20260508224005 | 68 | 203 | 1.0 | 4.0 | 0.00 | 0.06 | 0.06 | 55 | 1004.4 |
| 20260508223503 | 68 | 198 | 3.0 | 9.0 | 0.00 | 0.06 | 0.06 | 54 | 1004.8 |
| 20260508223000 | 68 | 203 | 4.0 | 9.0 | 0.00 | 0.06 | 0.06 | 54 | 1004.8 |
| 20260508222458 | 68 | 201 | 5.0 | 7.0 | 0.00 | 0.06 | 0.06 | 52 | 1004.6 |
| 20260508221954 | 69 | 190 | 3.0 | 9.0 | 0.00 | 0.06 | 0.06 | 51 | 1004.6 |
| 20260508221450 | 70 | 177 | 3.0 | 7.0 | 0.00 | 0.06 | 0.06 | 50 | 1004.6 |
| 20260508220946 | 69 | 220 | 3.0 | 9.0 | 0.00 | 0.06 | 0.06 | 51 | 1004.7 |
| 20260508220443 | 69 | 202 | 2.0 | 7.0 | 0.00 | 0.06 | 0.06 | 50 | 1004.7 |
| 20260508215939 | 68 | 199 | 4.0 | 9.0 | 0.00 | 0.06 | 0.06 | 51 | 1004.9 |
| 20260508215437 | 69 | 207 | 7.0 | 7.0 | 0.00 | 0.06 | 0.06 | 49 | 1004.8 |
| 20260508214933 | 70 | 217 | 0.0 | 5.0 | 0.00 | 0.06 | 0.06 | 55 | 1004.7 |
| 20260508214431 | 70 | 203 | 6.0 | 9.0 | 0.00 | 0.06 | 0.06 | 53 | 1004.8 |
| 20260508213926 | 70 | 249 | 0.0 | 7.0 | 0.00 | 0.06 | 0.06 | 54 | 1004.8 |
| 20260508213424 | 70 | 205 | 4.0 | 6.0 | 0.00 | 0.06 | 0.06 | 52 | 1004.7 |
| 20260508212919 | 69 | 201 | 5.0 | 10.0 | 0.00 | 0.06 | 0.06 | 51 | 1004.9 |
| 20260508212416 | 68 | 193 | 7.0 | 8.0 | 0.00 | 0.06 | 0.06 | 54 | 1005.1 |
| 20260508211912 | 70 | 206 | 4.0 | 5.0 | 0.00 | 0.06 | 0.06 | 55 | 1005.0 |
| 20260508211408 | 69 | 216 | 4.0 | 10.0 | 0.00 | 0.06 | 0.06 | 56 | 1005.1 |
| 20260508210906 | 69 | 199 | 9.0 | 11.0 | 0.00 | 0.06 | 0.06 | 55 | 1005.0 |
| 20260508210402 | 70 | 57 | 0.0 | 4.0 | 0.00 | 0.06 | 0.06 | 58 | 1005.1 |
| 20260508205858 | 69 | 205 | 6.0 | 8.0 | 0.00 | 0.06 | 0.06 | 57 | 1005.2 |
| 20260508205355 | 70 | 220 | 5.0 | 7.0 | 0.00 | 0.06 | 0.06 | 60 | 1005.1 |
| 20260508204851 | 69 | 196 | 5.0 | 11.0 | 0.00 | 0.06 | 0.06 | 59 | 1005.3 |
| 20260508204349 | 70 | 206 | 3.0 | 7.0 | 0.00 | 0.06 | 0.06 | 59 | 1005.1 |
| 20260508203844 | 70 | 196 | 2.0 | 4.0 | 0.00 | 0.06 | 0.06 | 61 | 1005.3 |
| 20260508203340 | 68 | 210 | 2.0 | 7.0 | 0.00 | 0.06 | 0.06 | 59 | 1005.5 |
| 20260508202836 | 68 | 198 | 5.0 | 5.0 | 0.00 | 0.06 | 0.06 | 62 | 1005.5 |
| 20260508202334 | 68 | 194 | 5.0 | 6.0 | 0.00 | 0.06 | 0.06 | 60 | 1005.6 |
| 20260508201831 | 68 | 203 | 0.0 | 5.0 | 0.00 | 0.06 | 0.06 | 60 | 1005.6 |
| 20260508201328 | 68 | 212 | 3.0 | 3.0 | 0.00 | 0.06 | 0.06 | 61 | 1005.8 |
| 20260508200824 | 67 | 279 | 0.0 | 6.0 | 0.00 | 0.06 | 0.06 | 63 | 1006.0 |
| 20260508200321 | 66 | 201 | 2.0 | 3.0 | 0.00 | 0.06 | 0.06 | 65 | 1005.9 |
| 20260508195817 | 67 | 189 | 4.0 | 6.0 | 0.00 | 0.06 | 0.06 | 64 | 1005.9 |
| 20260508195314 | 65 | 204 | 4.0 | 7.0 | 0.00 | 0.06 | 0.06 | 63 | 1006.2 |
| 20260508194810 | 66 | 90 | 1.0 | 5.0 | 0.00 | 0.06 | 0.06 | 65 | 1006.3 |
| 20260508194308 | 65 | 202 | 6.0 | 8.0 | 0.00 | 0.06 | 0.06 | 62 | 1006.2 |
| 20260508193804 | 66 | 334 | 0.0 | 7.0 | 0.00 | 0.06 | 0.06 | 64 | 1006.3 |
| 20260508193301 | 67 | 305 | 2.0 | 5.0 | 0.00 | 0.06 | 0.06 | 64 | 1006.2 |
| 20260508192757 | 67 | 4 | 0.0 | 5.0 | 0.00 | 0.06 | 0.06 | 61 | 1006.3 |
| 20260508192254 | 67 | 184 | 2.0 | 5.0 | 0.00 | 0.06 | 0.06 | 61 | 1006.3 |
| 20260508191752 | 66 | 210 | 4.0 | 5.0 | 0.00 | 0.06 | 0.06 | 61 | 1006.5 |
| 20260508191249 | 66 | 208 | 3.0 | 6.0 | 0.00 | 0.06 | 0.06 | 60 | 1006.6 |
| 20260508190746 | 67 | 78 | 4.0 | 5.0 | 0.00 | 0.06 | 0.06 | 60 | 1006.3 |
| 20260508190242 | 66 | 157 | 1.0 | 6.0 | 0.00 | 0.06 | 0.06 | 62 | 1006.3 |
| 20260508185738 | 66 | 187 | 0.0 | 9.0 | 0.00 | 0.06 | 0.06 | 64 | 1006.7 |
| 20260508185236 | 66 | 250 | 2.0 | 4.0 | 0.00 | 0.06 | 0.06 | 61 | 1006.5 |
| 20260508184733 | 66 | 192 | 4.0 | 4.0 | 0.00 | 0.06 | 0.06 | 62 | 1006.5 |
| 20260508184230 | 66 | 63 | 0.0 | 5.0 | 0.00 | 0.06 | 0.06 | 63 | 1006.6 |
| 20260508183727 | 67 | 200 | 3.0 | 4.0 | 0.00 | 0.06 | 0.06 | 65 | 1006.7 |
| 20260508183223 | 67 | 251 | 0.0 | 6.0 | 0.00 | 0.06 | 0.06 | 63 | 1006.6 |
| 20260508182719 | 66 | 352 | 0.0 | 4.0 | 0.00 | 0.06 | 0.06 | 61 | 1006.8 |
| 20260508182216 | 66 | 184 | 2.0 | 5.0 | 0.00 | 0.06 | 0.06 | 65 | 1007.1 |
| 20260508181712 | 65 | 225 | 3.0 | 4.0 | 0.00 | 0.06 | 0.06 | 67 | 1007.2 |
| 20260508181209 | 65 | 90 | 0.0 | 6.0 | 0.00 | 0.06 | 0.06 | 66 | 1007.1 |
| 20260508180706 | 65 | 194 | 3.0 | 5.0 | 0.00 | 0.06 | 0.06 | 67 | 1007.0 |
| 20260508180203 | 64 | 198 | 5.0 | 7.0 | 0.00 | 0.06 | 0.06 | 68 | 1007.1 |
| 20260508175659 | 64 | 206 | 3.0 | 7.0 | 0.00 | 0.06 | 0.06 | 66 | 1007.2 |
| 20260508175156 | 64 | 208 | 0.0 | 4.0 | 0.00 | 0.06 | 0.06 | 69 | 1007.1 |
| 20260508174654 | 63 | 199 | 4.0 | 5.0 | 0.00 | 0.06 | 0.06 | 68 | 1007.3 |
| 20260508174150 | 64 | 79 | 3.0 | 4.0 | 0.00 | 0.06 | 0.06 | 67 | 1007.4 |
| 20260508173647 | 64 | 211 | 3.0 | 5.0 | 0.00 | 0.06 | 0.06 | 64 | 1007.3 |
| 20260508173143 | 65 | 206 | 3.0 | 6.0 | 0.00 | 0.06 | 0.06 | 67 | 1007.4 |
| 20260508172640 | 65 | 180 | 0.0 | 3.0 | 0.00 | 0.06 | 0.06 | 69 | 1007.5 |
| 20260508172137 | 64 | 53 | 2.0 | 5.0 | 0.00 | 0.06 | 0.06 | 69 | 1007.4 |
| 20260508171633 | 64 | 194 | 3.0 | 7.0 | 0.00 | 0.06 | 0.06 | 66 | 1007.5 |
| 20260508171130 | 65 | 249 | 0.0 | 6.0 | 0.00 | 0.06 | 0.06 | 66 | 1007.7 |
| 20260508170627 | 65 | 73 | 2.0 | 5.0 | 0.00 | 0.06 | 0.06 | 68 | 1007.9 |
| 20260508170125 | 65 | 117 | 3.0 | 4.0 | 0.00 | 0.06 | 0.06 | 67 | 1008.0 |
| 20260508165622 | 65 | 80 | 4.0 | 4.0 | 0.00 | 0.06 | 0.06 | 71 | 1007.9 |
| 20260508165119 | 64 | 200 | 4.0 | 5.0 | 0.00 | 0.06 | 0.06 | 71 | 1008.1 |
| 20260508164615 | 63 | 195 | 2.0 | 4.0 | 0.00 | 0.06 | 0.06 | 69 | 1008.3 |
| 20260508164112 | 64 | 199 | 5.0 | 6.0 | 0.00 | 0.06 | 0.06 | 73 | 1008.3 |
| 20260508163609 | 62 | 209 | 0.0 | 8.0 | 0.00 | 0.06 | 0.06 | 70 | 1008.4 |
| 20260508163106 | 62 | 41 | 2.0 | 5.0 | 0.00 | 0.06 | 0.06 | 72 | 1008.3 |
| 20260508162602 | 62 | 196 | 3.0 | 6.0 | 0.00 | 0.06 | 0.06 | 73 | 1008.3 |
| 20260508162100 | 63 | 90 | 1.0 | 5.0 | 0.00 | 0.06 | 0.06 | 71 | 1008.2 |
| 20260508161556 | 63 | 187 | 3.0 | 4.0 | 0.00 | 0.06 | 0.06 | 72 | 1008.3 |
| 20260508161054 | 63 | 210 | 3.0 | 4.0 | 0.00 | 0.06 | 0.06 | 74 | 1008.4 |
| 20260508160552 | 63 | 105 | 3.0 | 4.0 | 0.00 | 0.06 | 0.06 | 73 | 1008.7 |
| 20260508160049 | 62 | 105 | 0.0 | 3.0 | 0.00 | 0.06 | 0.06 | 73 | 1008.7 |
| 20260508155546 | 62 | 8 | 0.0 | 8.0 | 0.00 | 0.06 | 0.06 | 75 | 1008.6 |
| 20260508155043 | 62 | 201 | 2.0 | 4.0 | 0.00 | 0.06 | 0.06 | 72 | 1008.7 |
| 20260508154540 | 62 | 90 | 1.0 | 5.0 | 0.00 | 0.06 | 0.06 | 75 | 1008.6 |
| 20260508154037 | 62 | 191 | 2.0 | 3.0 | 0.00 | 0.06 | 0.06 | 76 | 1008.7 |
| 20260508153534 | 60 | 196 | 0.0 | 4.0 | 0.00 | 0.06 | 0.06 | 75 | 1008.8 |
| 20260508153030 | 61 | 202 | 2.0 | 5.0 | 0.00 | 0.06 | 0.06 | 77 | 1009.0 |
| 20260508152527 | 61 | 15 | 2.0 | 5.0 | 0.00 | 0.06 | 0.06 | 77 | 1008.9 |
| 20260508152023 | 61 | 190 | 4.0 | 5.0 | 0.00 | 0.06 | 0.06 | 76 | 1008.8 |
| 20260508151520 | 60 | 193 | 3.0 | 7.0 | 0.00 | 0.06 | 0.06 | 76 | 1008.9 |
| 20260508151016 | 60 | 192 | 5.0 | 5.0 | 0.00 | 0.06 | 0.06 | 78 | 1009.0 |
| 20260508150514 | 60 | 68 | 2.0 | 4.0 | 0.00 | 0.06 | 0.06 | 78 | 1009.0 |
| 20260508150009 | 60 | 96 | 1.0 | 7.0 | 0.00 | 0.06 | 0.06 | 78 | 1008.8 |
| 20260508145506 | 60 | 98 | 1.0 | 4.0 | 0.00 | 0.06 | 0.06 | 79 | 1008.9 |
| 20260508145002 | 60 | 90 | 0.0 | 4.0 | 0.00 | 0.06 | 0.06 | 79 | 1008.7 |
| 20260508144500 | 60 | 90 | 0.0 | 5.0 | 0.00 | 0.06 | 0.06 | 80 | 1009.1 |
| 20260508143957 | 60 | 194 | 3.0 | 5.0 | 0.00 | 0.06 | 0.06 | 80 | 1009.3 |
| 20260508143455 | 59 | 90 | 0.0 | 5.0 | 0.00 | 0.06 | 0.06 | 81 | 1009.3 |
| 20260508142951 | 59 | 192 | 7.0 | 7.0 | 0.00 | 0.06 | 0.06 | 81 | 1009.5 |
| 20260508142448 | 60 | 195 | 1.0 | 2.0 | 0.00 | 0.06 | 0.06 | 82 | 1009.3 |
| 20260508141944 | 58 | 190 | 5.0 | 6.0 | 0.00 | 0.06 | 0.06 | 82 | 1009.5 |
| 20260508141441 | 58 | 195 | 0.0 | 6.0 | 0.00 | 0.06 | 0.06 | 83 | 1009.5 |
| 20260508140939 | 59 | 192 | 6.0 | 6.0 | 0.00 | 0.06 | 0.06 | 83 | 1009.4 |
| 20260508140436 | 59 | 204 | 2.0 | 5.0 | 0.00 | 0.06 | 0.06 | 82 | 1009.3 |
| 20260508135931 | 59 | 229 | 2.0 | 4.0 | 0.00 | 0.06 | 0.06 | 83 | 1009.3 |
| 20260508135428 | 59 | 194 | 5.0 | 5.0 | 0.00 | 0.06 | 0.06 | 82 | 1009.5 |
| 20260508134925 | 59 | 165 | 1.0 | 6.0 | 0.00 | 0.06 | 0.06 | 81 | 1009.4 |
| 20260508134421 | 60 | 188 | 2.0 | 5.0 | 0.00 | 0.06 | 0.06 | 80 | 1009.1 |
| 20260508133918 | 59 | 90 | 0.0 | 3.0 | 0.00 | 0.06 | 0.06 | 81 | 1009.4 |
| 20260508133416 | 58 | 180 | 1.0 | 3.0 | 0.00 | 0.06 | 0.06 | 83 | 1009.3 |
| 20260508132912 | 56 | 198 | 1.0 | 4.0 | 0.00 | 0.06 | 0.06 | 85 | 1009.5 |
| 20260508132411 | 56 | 172 | 2.0 | 5.0 | 0.00 | 0.06 | 0.06 | 88 | 1009.7 |
| 20260508131907 | 56 | 196 | 3.0 | 5.0 | 0.00 | 0.06 | 0.06 | 89 | 1009.7 |
| 20260508131402 | 55 | 203 | 0.0 | 5.0 | 0.00 | 0.06 | 0.06 | 92 | 1009.6 |
| 20260508130859 | 54 | 199 | 4.0 | 7.0 | 0.00 | 0.06 | 0.06 | 92 | 1009.7 |
| 20260508130356 | 53 | 202 | 2.0 | 5.0 | 0.00 | 0.06 | 0.06 | 93 | 1009.7 |
| 20260508125852 | 54 | 206 | 2.0 | 5.0 | 0.00 | 0.06 | 0.06 | 94 | 1009.5 |
| 20260508125348 | 54 | 201 | 2.0 | 5.0 | 0.00 | 0.06 | 0.06 | 93 | 1009.5 |
| 20260508124846 | 54 | 194 | 4.0 | 7.0 | 0.00 | 0.06 | 0.06 | 93 | 1009.3 |
| 20260508124343 | 54 | 225 | 3.0 | 4.0 | 0.00 | 0.06 | 0.06 | 95 | 1009.1 |
| 20260508123842 | 53 | 197 | 0.0 | 5.0 | 0.00 | 0.06 | 0.06 | 96 | 1009.3 |
| 20260508123340 | 53 | 195 | 2.0 | 5.0 | 0.00 | 0.06 | 0.06 | 96 | 1009.3 |
| 20260508122836 | 53 | 81 | 0.0 | 4.0 | 0.00 | 0.06 | 0.06 | 97 | 1009.3 |
| 20260508122333 | 51 | 195 | 2.0 | 3.0 | 0.00 | 0.06 | 0.06 | 97 | 1009.4 |
| 20260508121830 | 50 | 185 | 1.0 | 2.0 | 0.00 | 0.06 | 0.06 | 97 | 1009.5 |
| 20260508121328 | 51 | 201 | 2.0 | 2.0 | 0.00 | 0.06 | 0.06 | 97 | 1009.4 |
| 20260508120826 | 51 | 201 | 3.0 | 3.0 | 0.00 | 0.06 | 0.06 | 97 | 1009.6 |
| 20260508120323 | 51 | 192 | 0.0 | 2.0 | 0.00 | 0.06 | 0.06 | 98 | 1009.6 |
| 20260508115820 | 50 | 90 | 0.0 | 1.0 | 0.00 | 0.06 | 0.06 | 97 | 1009.3 |
| 20260508115318 | 50 | 188 | 0.0 | 0.0 | 0.00 | 0.06 | 0.06 | 97 | 1009.3 |
| 20260508114814 | 50 | 188 | 0.0 | 0.0 | 0.00 | 0.06 | 0.06 | 97 | 1009.6 |
| 20260508114311 | 50 | 99 | 0.0 | 1.0 | 0.02 | 0.06 | 0.06 | 97 | 1009.1 |
| 20260508113808 | 50 | 188 | 0.0 | 0.0 | 0.05 | 0.06 | 0.06 | 97 | 1009.6 |
| 20260508113306 | 50 | 188 | 0.0 | 0.0 | 0.02 | 0.06 | 0.06 | 97 | 1009.6 |
| 20260508112802 | 50 | 188 | 0.0 | 1.0 | 0.00 | 0.06 | 0.06 | 97 | 1009.4 |
| 20260508112300 | 49 | 180 | 0.0 | 0.0 | 0.00 | 0.06 | 0.06 | 96 | 1009.4 |
| 20260508111755 | 49 | 180 | 0.0 | 0.0 | 0.00 | 0.06 | 0.06 | 96 | 1009.4 |
| 20260508111254 | 49 | 180 | 0.0 | 1.0 | 0.00 | 0.06 | 0.06 | 96 | 1009.0 |
| 20260508110750 | 49 | 185 | 0.0 | 2.0 | 0.00 | 0.06 | 0.06 | 96 | 1008.9 |
| 20260508110247 | 49 | 209 | 0.0 | 2.0 | 0.00 | 0.06 | 0.06 | 96 | 1009.0 |
| 20260508105742 | 49 | 7 | 1.0 | 2.0 | 0.12 | 0.06 | 0.06 | 95 | 1008.9 |
| 20260508105238 | 49 | 198 | 1.0 | 2.0 | 0.12 | 0.06 | 0.06 | 95 | 1008.9 |
| 20260508104736 | 49 | 186 | 0.0 | 2.0 | 0.00 | 0.04 | 0.04 | 95 | 1009.5 |
| 20260508104233 | 49 | 98 | 0.0 | 0.0 | 0.00 | 0.04 | 0.04 | 95 | 1009.3 |
| 20260508103730 | 49 | 98 | 0.0 | 0.0 | 0.00 | 0.04 | 0.04 | 94 | 1009.1 |
| 20260508103227 | 49 | 84 | 2.0 | 2.0 | 0.00 | 0.04 | 0.04 | 94 | 1008.9 |
| 20260508102724 | 49 | 90 | 0.0 | 1.0 | 0.02 | 0.04 | 0.04 | 94 | 1009.1 |
| 20260508102222 | 49 | 74 | 0.0 | 0.0 | 0.09 | 0.04 | 0.04 | 93 | 1009.1 |
| 20260508101719 | 50 | 74 | 0.0 | 0.0 | 0.12 | 0.03 | 0.03 | 93 | 1009.1 |
| 20260508101217 | 49 | 74 | 0.0 | 0.0 | 0.07 | 0.02 | 0.02 | 93 | 1009.4 |
| 20260508100714 | 49 | 74 | 0.0 | 0.0 | 0.07 | 0.01 | 0.01 | 92 | 1009.1 |
| 20260508100212 | 50 | 83 | 1.0 | 1.0 | 0.02 | 0.00 | 0.00 | 92 | 1009.5 |
| 20260508095708 | 49 | 187 | 0.0 | 0.0 | 0.00 | 0.00 | 0.00 | 92 | 1009.5 |
| 20260508095206 | 49 | 187 | 0.0 | 0.0 | 0.00 | 0.00 | 0.00 | 91 | 1009.3 |
| 20260508094702 | 49 | 187 | 0.0 | 0.0 | 0.00 | 0.00 | 0.00 | 91 | 1009.3 |
| 20260508094159 | 49 | 187 | 0.0 | 1.0 | 0.00 | 0.00 | 0.00 | 91 | 1009.3 |
| 20260508093656 | 49 | 180 | 0.0 | 2.0 | 0.00 | 0.00 | 0.00 | 90 | 1009.4 |
| 20260508093154 | 49 | 194 | 2.0 | 3.0 | 0.00 | 0.00 | 0.00 | 90 | 1009.4 |
| 20260508092650 | 49 | 195 | 0.0 | 3.0 | 0.00 | 0.00 | 0.00 | 90 | 1009.3 |
| 20260508092149 | 49 | 180 | 0.0 | 0.0 | 0.00 | 0.00 | 0.00 | 89 | 1009.4 |
| 20260508091646 | 49 | 180 | 0.0 | 0.0 | 0.00 | 0.00 | 0.00 | 89 | 1009.5 |
| 20260508091143 | 49 | 180 | 0.0 | 0.0 | 0.00 | 0.00 | 0.00 | 89 | 1009.4 |
| 20260508090641 | 49 | 180 | 0.0 | 1.0 | 0.00 | 0.00 | 0.00 | 88 | 1009.6 |
| 20260508090138 | 49 | 189 | 0.0 | 0.0 | 0.00 | 0.00 | 0.00 | 89 | 1009.5 |
| 20260508085634 | 49 | 192 | 0.0 | 0.0 | 0.00 | 0.00 | 0.00 | 88 | 1009.6 |
| 20260508085131 | 49 | 194 | 0.0 | 0.0 | 0.00 | 0.00 | 0.00 | 88 | 1009.7 |
| 20260508084628 | 49 | 194 | 0.0 | 2.0 | 0.00 | 0.00 | 0.00 | 89 | 1009.7 |
| 20260508084125 | 49 | 188 | 0.0 | 1.0 | 0.00 | 0.00 | 0.00 | 89 | 1009.6 |
| 20260508083622 | 48 | 187 | 0.0 | 1.0 | 0.00 | 0.00 | 0.00 | 89 | 1009.6 |
| 20260508083119 | 48 | 180 | 0.0 | 0.0 | 0.00 | 0.00 | 0.00 | 89 | 1009.7 |
| 20260508082615 | 48 | 188 | 0.0 | 0.0 | 0.00 | 0.00 | 0.00 | 89 | 1009.6 |
| 20260508082112 | 48 | 188 | 0.0 | 0.0 | 0.00 | 0.00 | 0.00 | 88 | 1009.7 |
| 20260508081609 | 48 | 188 | 0.0 | 0.0 | 0.00 | 0.00 | 0.00 | 88 | 1009.4 |
| 20260508081106 | 48 | 188 | 0.0 | 0.0 | 0.00 | 0.00 | 0.00 | 88 | 1009.7 |
| 20260508080604 | 49 | 188 | 0.0 | 1.0 | 0.00 | 0.00 | 0.00 | 87 | 1009.7 |
| 20260508080101 | 48 | 194 | 0.0 | 0.0 | 0.00 | 0.00 | 0.00 | 87 | 1009.9 |
| 20260508075557 | 49 | 194 | 0.0 | 2.0 | 0.00 | 0.00 | 0.00 | 87 | 1009.8 |
| 20260508075055 | 49 | 180 | 0.0 | 1.0 | 0.00 | 0.00 | 0.00 | 86 | 1010.1 |
| 20260508074552 | 49 | 187 | 0.0 | 1.0 | 0.00 | 0.00 | 0.00 | 86 | 1010.0 |
| 20260508074049 | 49 | 82 | 1.0 | 2.0 | 0.00 | 0.00 | 0.00 | 86 | 1010.0 |
| 20260508073546 | 49 | 345 | 0.0 | 0.0 | 0.00 | 0.00 | 0.00 | 85 | 1009.9 |
| 20260508073044 | 50 | 345 | 0.0 | 0.0 | 0.00 | 0.00 | 0.00 | 85 | 1009.9 |
| 20260508072539 | 50 | 194 | 0.0 | 3.0 | 0.00 | 0.00 | 0.00 | 85 | 1010.1 |
| 20260508072037 | 50 | 5 | 2.0 | 2.0 | 0.00 | 0.00 | 0.00 | 85 | 1010.2 |
| 20260508071535 | 50 | 174 | 0.0 | 3.0 | 0.00 | 0.00 | 0.00 | 85 | 1009.9 |
| 20260508071032 | 50 | 78 | 0.0 | 2.0 | 0.00 | 0.00 | 0.00 | 85 | 1010.0 |
| 20260508070530 | 50 | 0 | 0.0 | 3.0 | 0.00 | 0.00 | 0.00 | 85 | 1010.1 |
| 20260508070028 | 50 | 195 | 2.0 | 3.0 | 0.00 | 0.00 | 0.00 | 86 | 1009.9 |
| 20260508065525 | 49 | 81 | 0.0 | 3.0 | 0.00 | 0.00 | 0.00 | 86 | 1010.3 |
| 20260508065023 | 49 | 190 | 0.0 | 2.0 | 0.00 | 0.00 | 0.00 | 87 | 1010.2 |
| 20260508064520 | 49 | 77 | 0.0 | 2.0 | 0.00 | 0.00 | 0.00 | 87 | 1010.1 |
| 20260508064018 | 48 | 66 | 0.0 | 1.0 | 0.00 | 0.00 | 0.00 | 88 | 1010.3 |
| 20260508063515 | 48 | 261 | 0.0 | 0.0 | 0.00 | 0.00 | 0.00 | 88 | 1010.2 |
| 20260508063013 | 48 | 74 | 0.0 | 0.0 | 0.00 | 0.00 | 0.00 | 88 | 1010.2 |
| 20260508062511 | 48 | 54 | 0.0 | 0.0 | 0.00 | 0.00 | 0.00 | 88 | 1010.1 |
| 20260508062007 | 47 | 83 | 0.0 | 0.0 | 0.00 | 0.00 | 0.00 | 88 | 1010.1 |
| 20260508061506 | 47 | 83 | 0.0 | 0.0 | 0.00 | 0.00 | 0.00 | 87 | 1010.0 |
| 20260508061001 | 48 | 83 | 0.0 | 0.0 | 0.00 | 0.00 | 0.00 | 87 | 1010.0 |
| 20260508060458 | 48 | 83 | 0.0 | 0.0 | 0.00 | 0.00 | 0.00 | 87 | 1010.1 |
| 20260508055954 | 48 | 26 | 0.0 | 2.0 | 0.00 | 0.00 | 0.00 | 87 | 1010.4 |
| 20260508055452 | 48 | 188 | 0.0 | 0.0 | 0.00 | 0.00 | 0.00 | 87 | 1010.3 |
| 20260508054948 | 48 | 188 | 0.0 | 0.0 | 0.00 | 0.00 | 0.00 | 86 | 1010.3 |
| 20260508054445 | 48 | 15 | 0.0 | 2.0 | 0.00 | 0.00 | 0.00 | 87 | 1010.4 |
| 20260508053942 | 48 | 286 | 0.0 | 2.0 | 0.00 | 0.00 | 0.00 | 87 | 1010.5 |
| 20260508053439 | 48 | 7 | 0.0 | 1.0 | 0.00 | 0.00 | 0.00 | 87 | 1010.1 |
| 20260508052937 | 48 | 282 | 0.0 | 2.0 | 0.00 | 0.00 | 0.00 | 87 | 1010.4 |
| 20260508052434 | 48 | 209 | 0.0 | 0.0 | 0.00 | 0.00 | 0.00 | 87 | 1010.3 |
| 20260508051930 | 48 | 209 | 0.0 | 1.0 | 0.00 | 0.00 | 0.00 | 86 | 1010.2 |